Regional Weather Roundup
Issued by NWS Nashville, TN

Home | Current Version | Previous Version | Text Only | Print | Product List | Glossary On
Versions: 1 2 3 4 5 6 7 8 9 10 11 12 13 14 15 16 17 18 19 20 21 22 23 24 25 26 27 28
000
ASUS44 KOHX 210910
RWROHX
MIDDLE TENNESSEE HOURLY WEATHER ROUNDUP
NATIONAL WEATHER SERVICE NASHVILLE TN
400 AM CDT SAT OCT 21 2017

NOTE: "FAIR" INDICATES FEW OR NO CLOUDS BELOW 12,000 FEET WITH
NO SIGNIFICANT WEATHER AND/OR OBSTRUCTIONS TO VISIBILITY.

* THESE REPORTS ARE NOT UNDER NWS QUALITY CONTROL AND MAY NOT
  REPORT WEATHER SUCH AS PRECIPITATION AND FOG.


TNZ005>011-023>034-057-059-062>066-078-080-211000
...NORTHERN MIDDLE TENNESSEE...

CITY           SKY/WX    TMP DP  RH WIND       PRES   REMARKS
CLARKSVILLE    PTCLDY    50  48  93 SE6       30.16S
CROSSVILLE     CLOUDY    49  47  93 CALM      30.24S
GALLATIN       PTCLDY    48  46  93 CALM      30.21S
DICKSON          N/A     55  44  66 S5        30.15S
LEBANON        PTCLDY    45  44  96 CALM      30.17S
NASHVILLE      MOCLDY    49  45  86 S3        30.18S
PORTLAND       CLEAR     52  50  93 SE3       30.18R
SMYRNA         CLOUDY    46  45  96 CALM      30.20S FOG
SPARTA         CLEAR     43  43 100 CALM      30.20R
WEST NASHVILLE CLEAR     50  48  93 CALM      30.15F
$$
TNZ056-058-060-061-075>077-079-093>097-211000
...SOUTHERN MIDDLE TENNESSEE...

CITY           SKY/WX    TMP DP  RH WIND       PRES   REMARKS
COLUMBIA       CLEAR     45  45 100 CALM      30.15S
FAYETTEVILLE   CLEAR     50  46  87 CALM      30.18S
MURFREESBORO   CLOUDY    48  46  93 CALM      30.19S
PULASKI        CLOUDY    45  45 100 CALM      30.18S
SHELBYVILLE    CLEAR     48  46  93 E3        30.19S
TULLAHOMA      CLEAR     54  46  76 SE6       30.20S
WINCHESTER     CLEAR     52  48  87 E6          N/A
$$


...KEY TO REMARKS...
VSB - VISIBILITY IN MILES
WCI - WIND CHILL INDEX
HX  - HEAT INDEX





USA.gov is the U.S. government's official web portal to all federal, state and local government web resources and services.